EW7244 Weather Reports


time (UTC)temp
F
wind
direction
speed
knots
gust
knots
rain 1hr
in
rain 24hr
in
rain mn
in
humidity
%
barometer
mb
20260906090002 75 84 0.0 0.0 0.00 0.00 0.00 62 1018.6
20260906084551 74 290 0.0 0.0 0.00 0.00 0.00 65 1018.7
20260906083047 73 106 0.0 0.0 0.00 0.00 0.00 67 1018.6
20260906081538 72 119 0.0 0.0 0.00 0.00 0.00 70 1018.7
20260906080046 71 133 0.0 0.0 0.00 0.00 0.00 71 1018.8
20260906074556 71 144 0.0 0.0 0.00 0.00 0.00 73 1018.8
20260906073043 70 146 0.0 0.0 0.00 0.00 0.00 74 1018.7
20260906071542 70 84 0.0 0.0 0.00 0.00 0.00 76 1018.7
20260906070053 70 111 0.0 0.0 0.00 0.00 0.00 76 1018.7
20260906064548 69 123 0.0 0.0 0.00 0.00 0.00 77 1018.7
20260906063044 69 123 0.0 0.0 0.00 0.00 0.00 78 1018.6
20260906061546 68 240 0.0 0.0 0.00 0.00 0.00 80 1018.5
20260906060103 68 241 0.0 0.0 0.00 0.00 0.00 82 1018.4
20260906054546 67 241 0.0 0.0 0.00 0.00 0.00 84 1018.3
20260906053042 65 241 0.0 0.0 0.00 0.00 0.00 85 1018.0
20260906051558 64 237 0.0 0.0 0.00 0.00 0.00 86 1017.7
20260906050042 64 237 0.0 0.0 0.00 0.00 0.00 85 1017.6
20260906044543 64 237 0.0 0.0 0.00 0.00 0.00 86 1017.5
20260906043038 64 237 0.0 0.0 0.00 0.00 0.00 86 1017.4
20260906041529 65 237 0.0 0.0 0.00 0.00 0.00 83 1017.4
20260906040010 65 237 0.0 0.0 0.00 0.00 0.00 82 1017.3
20260906034605 66 237 0.0 0.0 0.00 0.00 0.00 82 1017.0
20260906033001 66 237 0.0 0.0 0.00 0.00 0.00 83 1016.9
20260906031556 66 237 0.0 0.0 0.00 0.00 0.00 83 1016.8
20260906030046 67 237 0.0 0.0 0.00 0.00 0.00 81 1016.8
20260906024540 67 237 0.0 0.0 0.00 0.00 0.00 81 1016.7
20260906023053 67 237 0.0 0.0 0.00 0.00 0.00 81 1016.7
20260906021557 67 237 0.0 0.0 0.00 0.00 0.00 82 1016.7
20260906020049 67 237 0.0 0.0 0.00 0.00 0.00 81 1016.6
20260906014549 68 237 0.0 0.0 0.00 0.00 0.00 81 1016.4
20260906013041 68 237 0.0 0.0 0.00 0.00 0.00 80 1016.4
20260906011539 68 237 0.0 0.0 0.00 0.00 0.00 81 1016.3
20260906010128 69 237 0.0 0.0 0.00 0.00 0.00 80 1016.3
20260906004556 69 236 0.0 0.0 0.00 0.00 0.00 80 1016.2
20260906003044 69 236 0.0 0.0 0.00 0.00 0.00 79 1016.2
20260906001555 70 236 0.0 0.0 0.00 0.00 0.00 78 1016.2
20260906000052 70 236 0.0 0.0 0.00 0.00 0.00 78 1016.1
20260905234544 71 236 0.0 0.0 0.00 0.00 0.00 78 1016.0
20260905233042 71 236 0.0 0.0 0.00 0.00 0.00 78 1016.0
20260905231543 70 236 0.0 0.0 0.00 0.00 0.00 78 1015.8
20260905230023 70 236 0.0 0.0 0.00 0.00 0.00 79 1015.8
20260905224511 71 236 0.0 0.0 0.00 0.00 0.00 78 1015.7
20260905223056 71 236 0.0 0.0 0.00 0.00 0.00 76 1015.5
20260905221547 71 236 0.0 0.0 0.00 0.00 0.00 76 1015.4
20260905220100 72 236 0.0 0.0 0.00 0.00 0.00 77 1015.3
20260905214553 71 236 0.0 0.0 0.00 0.00 0.00 76 1015.2
20260905213050 71 236 0.0 0.0 0.00 0.00 0.00 78 1015.0
20260905211546 72 236 0.0 0.0 0.00 0.00 0.00 76 1015.0
20260905210116 72 236 0.0 0.0 0.00 0.00 0.00 76 1014.8
20260905204601 72 236 0.0 0.0 0.00 0.00 0.00 75 1014.8
20260905203050 72 236 0.0 0.0 0.00 0.00 0.00 75 1014.8
20260905201545 72 236 0.0 0.0 0.00 0.00 0.00 76 1014.6
20260905200107 72 236 0.0 0.0 0.00 0.00 0.00 76 1014.4
20260905194556 73 236 0.0 0.0 0.00 0.00 0.00 75 1014.2
20260905193048 73 238 0.0 0.0 0.00 0.00 0.00 74 1014.0
20260905191541 73 240 0.0 0.0 0.00 0.00 0.00 74 1013.7
20260905190059 74 240 0.0 0.0 0.00 0.00 0.00 73 1013.6
20260905184600 74 240 0.0 0.0 0.00 0.00 0.00 72 1013.4
20260905183044 74 240 0.0 0.0 0.00 0.00 0.00 72 1013.2
20260905181545 75 240 0.0 0.0 0.00 0.00 0.00 72 1012.9
20260905180043 75 241 0.0 0.0 0.00 0.00 0.00 72 1012.7
20260905174533 76 240 0.0 0.0 0.00 0.00 0.00 69 1012.4
20260905173016 77 241 0.0 0.0 0.00 0.00 0.00 68 1012.2
20260905171601 77 241 0.0 0.0 0.00 0.00 0.00 68 1012.0
20260905170050 78 242 0.0 0.0 0.00 0.00 0.00 67 1011.8
20260905164545 79 242 0.0 0.0 0.00 0.00 0.00 65 1011.7
20260905163054 80 242 0.0 0.0 0.00 0.00 0.00 64 1011.5
20260905161554 81 242 0.0 0.0 0.00 0.00 0.00 63 1011.5
20260905160048 82 242 0.0 0.0 0.00 0.00 0.00 60 1011.3
20260905154541 83 94 0.0 0.0 0.00 0.00 0.00 59 1011.2
20260905153058 85 69 0.0 0.0 0.00 0.00 0.00 55 1011.1
20260905151601 86 57 0.0 0.0 0.00 0.00 0.00 49 1011.2
20260905150055 88 168 0.0 0.0 0.00 0.00 0.00 47 1011.0
20260905144554 86 89 0.0 0.0 0.00 0.00 0.00 48 1010.9
20260905143044 86 96 0.0 0.0 0.00 0.00 0.00 49 1011.0
20260905141540 87 175 0.0 0.0 0.00 0.00 0.00 48 1011.0
20260905140057 87 161 0.0 0.0 0.00 0.00 0.00 48 1011.1
20260905134550 87 65 0.0 0.0 0.00 0.00 0.00 48 1011.2
20260905133042 86 97 0.0 0.0 0.00 0.00 0.00 49 1011.3
20260905131603 86 11 0.0 0.0 0.00 0.00 0.00 49 1011.3
20260905130049 85 283 0.0 0.0 0.00 0.00 0.00 50 1011.5
20260905124538 84 237 0.0 0.0 0.00 0.00 0.00 53 1011.7
20260905123051 85 146 0.0 0.0 0.00 0.00 0.00 53 1011.8
20260905121516 84 148 0.0 0.0 0.00 0.00 0.00 52 1011.9
20260905120053 84 266 0.0 0.0 0.00 0.00 0.00 55 1012.0
20260905114546 83 103 0.0 0.0 0.00 0.00 0.00 55 1012.2
20260905113039 82 148 0.0 0.0 0.00 0.00 0.00 56 1012.2
20260905111559 81 82 0.0 0.0 0.00 0.00 0.00 57 1012.3
20260905110048 80 156 0.0 0.0 0.00 0.00 0.00 61 1012.3
20260905104540 79 150 0.0 0.0 0.00 0.00 0.00 63 1012.6
20260905103051 78 47 0.0 0.0 0.00 0.00 0.00 66 1012.5
20260905101550 77 93 0.0 0.0 0.00 0.00 0.00 66 1012.5
20260905100039 77 144 0.0 0.0 0.00 0.00 0.00 68 1012.7
20260905094557 76 161 0.0 0.0 0.00 0.00 0.00 69 1012.9
20260905093053 75 90 0.0 0.0 0.00 0.00 0.00 70 1012.9
20260905091552 74 92 0.0 0.0 0.00 0.00 0.00 74 1012.9